Terminal Aerodrome Forecast
Issued by NWS

Home | Current Version | Previous Version | Graphics & Text | Print | Product List | Glossary On
Versions: 1 2 3 4 5 6 7 8 9 10 11 12 13 14 15 16 17 18 19 20 21 22 23 24 25 26 27
028
FTUS43 KLOT 252114 AAA
TAFORD
TAF AMD
KORD 252114Z 2521/2624 15014G20KT P6SM FEW050 BKN250
     FM260100 16010KT P6SM SCT050 BKN150
     FM261500 18014G20KT P6SM VCSH SCT015 BKN040 PROB30 2616/2620
      4SM -TSRA BKN035CB
     FM262000 19015G25KT P6SM VCTS SCT040CB BKN080
      TEMPO 2621/2624 4SM -TSRA BKN035CB OVC060=

USA.gov is the U.S. government's official web portal to all federal, state and local government web resources and services.